#timestamp,LO_Frequency,Hit 
1501045215.7,286046998.6,N
1501045235.5,286046999.5,N
1501045255.4,286046995.3,N
1501045275.2,286046995.5,N
1501045295.0,286046993.4,N
1501045295.9,286046993.4,N
1501045315.8,286046995.9,N
1501045335.6,286046995.1,N
1501045355.4,286046997.5,N
1501045375.2,286046998.0,N
1501045395.1,286046996.2,N
1501045396.0,286046996.2,N
1501045415.8,286046997.1,N
1501045435.6,286046998.8,N
1501045455.5,286046995.0,N
1501045475.3,286046997.3,N
1501045495.1,286046999.3,N
1501045515.9,286046995.8,N
1501045535.7,286046992.0,N
1501045555.5,286046991.6,N
1501045575.4,286046988.5,N
1501045595.2,286046991.6,N
1501045615.0,286046995.9,N
1501045615.9,286046995.9,N
1501045635.7,286047000.1,N
1501045655.6,286047001.8,N
1501045675.4,286047003.0,N
1501045695.2,286047007.5,N
1501045715.1,286047004.5,N
1501045716.0,286047004.5,N
1501045735.8,286047000.6,N
1501045755.6,286046997.5,N
1501045775.5,286046995.4,N
1501045795.3,286046994.0,N
1501045815.1,286046993.1,N
1501045835.9,286046994.7,N
1501045855.7,286046993.1,N
1501045875.5,286046991.1,N
1501045895.3,286046991.2,N
1501045915.2,286046993.5,N
1501045935.0,286046993.0,N
1501045935.9,286046993.0,N
1501045955.7,286046995.1,N
1501045975.6,286046993.8,N
1501045995.4,286046990.7,N
1501046015.2,286046990.4,N
1501046035.1,286046994.2,N
1501046036.0,286046994.2,N
1501046055.8,286046994.5,N
1501046075.6,286046991.2,N
1501046095.5,286046990.0,N
1501046115.3,286046992.1,N
1501046135.1,286046997.6,N
1501046155.8,286046995.2,N
1501046175.7,286046992.9,N
1501046195.5,286046990.4,N
1501046215.3,286046991.4,N
1501046235.2,286046988.9,N
1501046255.9,286046989.9,N
1501046275.7,286046987.1,N
1501046295.6,286046988.7,N
1501046315.4,286046992.1,N
1501046335.2,286046993.5,N
1501046355.1,286046988.5,N
1501046356.0,286046988.5,N
1501046375.8,286046987.0,N
1501046395.6,286046987.0,N
1501046415.4,286046989.3,N
1501046435.3,286046991.4,N
1501046455.1,286046989.0,N
1501046475.8,286046990.2,N
1501046495.7,286046996.1,N
1501046515.5,286046993.6,N
1501046535.3,286046997.7,N
1501046555.2,286046999.6,N
1501046575.9,286046996.8,N
1501046595.7,286047000.8,N
1501046615.6,286046997.5,N
1501046635.4,286046995.1,N
1501046655.2,286046995.3,N
1501046675.0,286046995.2,N
1501046675.9,286046995.2,N
1501046695.8,286046995.4,N
1501046715.6,286046994.3,N
1501046735.4,286046990.7,N
1501046755.3,286046991.7,N
1501046775.1,286046990.7,N
1501046776.0,286046990.7,N
1501046795.8,286046992.4,N
1501046815.7,286046990.6,N
1501046835.5,286046991.1,N
1501046855.3,286046989.7,N
1501046875.1,286046989.0,N
1501046895.9,286046989.9,N
1501046915.7,286046989.1,N
1501046935.5,286046989.2,N
1501046955.4,286046985.4,N
1501046975.2,286046985.4,N
1501046995.0,286046990.3,N
1501046995.9,286046990.3,N
1501047015.8,286046990.0,N
1501047035.6,286046988.1,N
1501047055.4,286046988.0,N
1501047075.3,286046989.7,N
1501047095.1,286046989.7,N
1501047096.0,286046989.7,N
1501047115.8,286046989.3,N
1501047135.6,286046989.1,N
1501047155.5,286046991.4,N
1501047175.3,286046989.2,N
1501047195.1,286046989.5,N
1501047215.9,286046987.1,N
1501047235.7,286046990.2,N
1501047255.5,286046995.9,N
1501047275.4,286046992.0,N
1501047295.2,286046994.6,N
1501047315.0,286046995.6,N
1501047315.9,286046995.6,N
1501047335.8,286046996.4,N
1501047355.6,286046994.8,N
1501047375.4,286046991.8,N
1501047395.2,286046992.1,N
1501047415.1,286046992.2,N
1501047416.0,286046992.2,N
1501047435.8,286046994.1,N
1501047455.6,286046995.2,N
1501047475.5,286046995.5,N
1501047495.3,286046995.9,N
1501047515.1,286046995.5,N
1501047535.9,286046994.7,N
1501047555.7,286046992.0,N
1501047575.5,286046992.7,N
1501047595.4,286046992.9,N
1501047615.2,286046996.4,N
1501047635.0,286046997.7,N
1501047635.9,286046997.7,N
1501047655.8,286047001.2,N
1501047675.6,286046997.4,N
1501047695.4,286046995.1,N
1501047715.2,286046994.0,N
1501047735.1,286046993.6,N
1501047736.0,286046993.6,N
1501047755.8,286046997.3,N
1501047775.6,286046999.3,N
1501047795.5,286047001.1,N
1501047815.3,286046995.0,N
1501047835.1,286046999.5,N
1501047855.9,286046996.0,N
1501047875.7,286046996.9,N
1501047895.5,286046993.8,N
1501047915.4,286046994.4,N
1501047935.2,286046999.8,N
1501047955.0,286047002.5,N
1501047955.9,286047002.5,N
1501047975.8,286047001.3,N
1501047995.6,286047001.0,N
1501048015.4,286046998.6,N
1501048035.2,286046999.0,N
1501048055.1,286046997.6,N
1501048056.0,286046997.6,N
1501048075.8,286046995.1,N
1501048095.6,286046996.2,N
1501048115.5,286046993.5,N
1501048135.3,286046994.6,N
1501048155.1,286046992.2,N
1501048175.9,286046990.4,N
1501048195.7,286046992.3,N
1501048215.5,286046994.4,N
1501048235.4,286046994.5,N
1501048255.2,286046993.2,N
1501048275.0,286046990.4,N
1501048275.9,286046990.4,N
1501048295.7,286046992.5,N
1501048315.6,286046995.7,N
1501048335.4,286046994.4,N
1501048355.2,286046991.7,N
1501048375.1,286046993.4,N
1501048376.0,286046993.4,N
1501048395.8,286046997.0,N
1501048415.6,286047000.1,N
1501048435.5,286047003.0,N
1501048455.3,286047002.1,N
1501048475.1,286046998.1,N
1501048495.9,286047000.7,N
1501048515.7,286046999.7,N
1501048535.5,286046999.8,N
1501048555.3,286046999.5,N
1501048575.2,286046997.3,N
1501048595.0,286046996.8,N
1501048595.9,286046996.8,N
1501048615.7,286046996.7,N
1501048635.6,286046996.5,N
1501048655.4,286046997.4,N
1501048675.2,286046997.0,N
1501048695.1,286046997.3,N
1501048696.0,286046997.3,N
1501048715.8,286046996.9,N
1501048735.6,286046996.5,N
1501048755.5,286046998.3,N
1501048775.3,286047002.5,N
1501048795.1,286047003.2,N
